Weather History for Bozeman, MT

Change the Weather History Date:

Saturday, February 16, 2013

  Actual Average Record
Temperature  
Mean Temperature -1 °C -3 °C  
Max Temperature 7 °C 4 °C 13 °C (1996)
Min Temperature -9 °C -9 °C -38 °C (1956)
Degree Days  
Heating Degree Days 35    
Month to date heating degree days 613  
Since 1 July heating degree days 5248  
Cooling Degree Days 0    
Month to date cooling degree days 0  
Year to date cooling degree days 0  
Moisture  
Dew Point -7 °C    
Average Humidity 64    
Maximum Humidity 88    
Minimum Humidity 40    
Precipitation  
Precipitation 0.00 mm 0.51 mm 1.57 mm (1991)
Month to date precipitation T 0.22  
Year to date precipitation 0.24 0.70  
Snow  
Snow 0.00 cm 0.51 cm 3.81 cm (1942)
Month to date snowfall T 2.6  
Since 1 July snowfall 16.9 20.0  
Snow Depth 10.16 cm    
Sea Level Pressure  
Sea Level Pressure 1021 hPa    
Wind  
Wind Speed 5 km/h (SE)    
Max Wind Speed 19 km/h    
Max Gust Speed 21 km/h    
Visibility 16 kilometers    
Events      
T = Trace of Precipitation, MM = Missing Value Source: NWS Daily Summary

Daily Weather History Graph

Daily Weather History Graph

Search for Another Location

Airport:

Trip Planner

Search our weather history database for the weather conditions in past years. The results will help you decide how hot, cold, wet, or windy it might be!

Date:

Astronomy

Feb. 16, 2013 Rise Set
Actual Time 7:24 AM MST 5:53 PM MST
Civil Twilight 6:54 AM MST 6:23 PM MST
Nautical Twilight 6:19 AM MST 6:58 PM MST
Astronomical Twilight 5:45 AM MST 7:33 PM MST
Moon 10:17 AM MST (2/16) 12:18 AM MST (2/16)
Length of Visible Light 11h 29m
Length of Day
10h 28m
Waxing Crescent, 40% of the Moon is Illuminated
Feb 16
Waxing Crescent
Feb 17
First Quarter
Feb 25
Full
Mar 4
Last Quarter
Mar 11
New

Hourly Weather History & Observations

Time (MST) Temp. Windchill Dew Point Humidity Pressure Visibility Wind Dir Wind Speed Gust Speed Precip Events Conditions
12:56 AM -5.6 °C -9.7 °C -8.9 °C 78% 1027.9 hPa 16.1 km South 9.3 km/h / 2.6 m/s - N/A   Clear
1:56 AM -4.4 °C -7.7 °C -8.9 °C 71% 1027.3 hPa 16.1 km SE 7.4 km/h / 2.1 m/s - N/A   Clear
2:56 AM -6.7 °C -11.6 °C -10.0 °C 78% 1027.4 hPa 16.1 km SSE 11.1 km/h / 3.1 m/s - N/A   Clear
3:56 AM -7.0 °C -11.4 °C -10.0 °C 80% 1022.6 hPa 16.1 km South 9.3 km/h / 2.6 m/s - N/A   Clear
4:56 AM -8.9 °C - -11.1 °C 84% 1026.8 hPa 16.1 km Calm Calm - N/A   Clear
5:56 AM -7.2 °C - -10.6 °C 77% 1026.5 hPa 16.1 km Calm Calm - N/A   Clear
6:56 AM -7.2 °C -12.2 °C -10.0 °C 81% 1026.3 hPa 16.1 km South 11.1 km/h / 3.1 m/s - N/A   Clear
7:56 AM -8.9 °C - -10.6 °C 88% 1027.2 hPa 16.1 km Calm Calm - N/A   Clear
8:56 AM -5.6 °C - -8.9 °C 78% 1026.0 hPa 16.1 km Calm Calm - N/A   Clear
9:56 AM -3.3 °C - -8.3 °C 69% 1025.0 hPa 16.1 km Calm Calm - N/A   Clear
10:56 AM -0.6 °C - -7.2 °C 61% 1024.9 hPa 16.1 km Calm Calm - N/A   Clear
11:56 AM 1.1 °C - -5.6 °C 61% 1022.9 hPa 16.1 km Calm Calm - N/A   Clear
12:56 PM 3.3 °C - -5.0 °C 55% 1021.2 hPa 16.1 km Calm Calm - N/A   Clear
1:56 PM 5.0 °C - -5.0 °C 49% 1019.0 hPa 16.1 km Calm Calm - N/A   Clear
2:56 PM 3.9 °C 2.0 °C -4.4 °C 55% 1018.4 hPa 16.1 km ESE 7.4 km/h / 2.1 m/s - N/A   Clear
3:56 PM 6.7 °C - -4.4 °C 45% 1016.9 hPa 16.1 km Calm Calm - N/A   Clear
4:56 PM 6.7 °C 5.8 °C -5.6 °C 42% 1016.0 hPa 16.1 km ESE 5.6 km/h / 1.5 m/s - N/A   Clear
5:56 PM 3.9 °C 2.6 °C -5.0 °C 53% 1015.6 hPa 16.1 km South 5.6 km/h / 1.5 m/s - N/A   Clear
6:56 PM 2.2 °C -0.5 °C -5.0 °C 59% 1015.0 hPa 16.1 km SE 9.3 km/h / 2.6 m/s - N/A   Clear
7:56 PM -0.6 °C -3.2 °C -5.6 °C 69% 1015.3 hPa 16.1 km ENE 7.4 km/h / 2.1 m/s - N/A   Clear
8:56 PM 0.0 °C -1.8 °C -6.1 °C 64% 1013.7 hPa 16.1 km Variable 5.6 km/h / 1.5 m/s - N/A   Mostly Cloudy
9:56 PM -0.6 °C -4.7 °C -6.1 °C 67% 1012.6 hPa 16.1 km ENE 13.0 km/h / 3.6 m/s - N/A   Overcast
10:56 PM 1.0 °C -2.4 °C -6.0 °C 60% 1008.4 hPa 16.1 km East 11.1 km/h / 3.1 m/s - N/A   Overcast
11:56 PM 0.0 °C -3.6 °C -6.1 °C 64% 1009.5 hPa 16.1 km East 11.1 km/h / 3.1 m/s - N/A   Overcast